GW4912 Weather Reports


time (UTC)temp
C
wind
direction
speed
KPH
gust
KPH
rain 1hr
cm
rain 24hr
cm
rain mn
cm
humidity
%
barometer
mb
20260509034846 11 349 4.8 8.0 0.23 0.36 0.36 96 1009.0
20260509034344 11 359 3.2 6.4 0.00 0.33 0.33 96 1009.1
20260509033840 11 12 4.8 4.8 0.00 0.33 0.33 96 1009.0
20260509033338 11 6 4.8 4.8 0.00 0.33 0.33 95 1009.0
20260509032834 11 68 1.6 6.4 0.13 0.33 0.33 95 1009.1
20260509032332 11 35 6.4 8.0 0.13 0.30 0.30 95 1009.3
20260509031830 11 50 3.2 8.0 0.05 0.30 0.30 95 1009.4
20260509031326 11 29 4.8 6.4 0.00 0.28 0.28 95 1009.3
20260509030824 11 20 3.2 8.0 0.00 0.28 0.28 95 1009.3
20260509030322 11 40 9.7 14.5 0.00 0.28 0.28 95 1009.3
20260509025818 11 29 8.0 9.7 0.00 0.28 0.28 95 1009.3
20260509025314 11 8 6.4 9.7 0.00 0.28 0.28 95 1009.4
20260509024810 11 35 4.8 9.7 0.00 0.28 0.28 96 1009.5
20260509024306 11 327 3.2 6.4 0.00 0.28 0.28 96 1009.6
20260509023803 11 17 3.2 12.9 0.00 0.28 0.28 96 1009.5
20260509023300 11 38 3.2 8.0 0.00 0.28 0.28 96 1009.5
20260509022756 11 308 3.2 6.4 0.00 0.28 0.28 97 1009.4
20260509022254 11 36 6.4 6.4 0.00 0.28 0.28 97 1009.3
20260509021751 11 318 3.2 3.2 0.00 0.28 0.28 97 1009.2
20260509021248 11 84 4.8 6.4 0.00 0.28 0.28 97 1009.5
20260509020746 11 344 3.2 4.8 0.00 0.28 0.28 97 1009.4
20260509020243 11 29 4.8 6.4 0.00 0.28 0.28 97 1009.2
20260509015741 11 298 0.0 4.8 0.00 0.28 0.28 97 1009.1
20260509015239 10 260 3.2 6.4 0.00 0.28 0.28 97 1009.3
20260509014735 11 331 3.2 6.4 0.00 0.28 0.28 97 1009.2
20260509014232 11 307 3.2 6.4 0.00 0.28 0.28 97 1009.2
20260509013729 11 327 0.0 4.8 0.00 0.28 0.28 97 1009.3
20260509013224 11 63 3.2 6.4 0.00 0.28 0.28 97 1009.2
20260509012721 11 11 4.8 9.7 0.00 0.28 0.28 97 1009.3
20260509012218 11 347 3.2 9.7 0.00 0.28 0.28 97 1009.4
20260509011716 11 6 0.0 6.4 0.00 0.28 0.28 97 1009.4
20260509011213 11 356 0.0 6.4 0.00 0.28 0.28 97 1009.2
20260509010711 10 259 4.8 6.4 0.00 0.28 0.28 97 1009.3
20260509010207 10 19 3.2 6.4 0.00 0.28 0.28 97 1008.9
20260509005704 10 347 1.6 4.8 0.00 0.28 0.28 97 1009.3
20260509005201 10 238 3.2 6.4 0.00 0.28 0.28 97 1009.3
20260509004656 10 328 0.0 4.8 0.00 0.28 0.28 97 1009.3
20260509004154 10 59 4.8 8.0 0.00 0.28 0.28 97 1009.1
20260509003652 10 248 1.6 6.4 0.00 0.28 0.28 96 1009.3
20260509003149 10 283 0.0 3.2 0.00 0.28 0.28 96 1009.2
20260509002646 10 12 4.8 9.7 0.00 0.28 0.28 97 1009.3
20260509002143 10 32 6.4 8.0 0.00 0.28 0.28 97 1009.4
20260509001641 10 168 3.2 8.0 0.00 0.28 0.28 97 1009.4
20260509001136 10 16 3.2 4.8 0.00 0.28 0.28 96 1009.3
20260509000635 10 302 1.6 6.4 0.05 0.28 0.28 96 1009.3
20260509000131 10 244 6.4 6.4 0.00 0.28 0.28 96 1009.3
20260508235629 10 345 3.2 4.8 0.05 0.28 0.28 96 1009.3
20260508235125 10 63 4.8 8.0 0.05 0.28 0.28 96 1009.3
20260508234623 10 347 3.2 6.4 0.05 0.28 0.28 96 1009.3
20260508234119 10 271 3.2 6.4 0.05 0.28 0.28 96 1009.4
20260508233619 10 37 0.0 6.4 0.00 0.25 0.25 96 1009.5
20260508233116 10 57 0.0 3.2 0.05 0.25 0.25 96 1009.3
20260508232613 10 351 1.6 4.8 0.00 0.25 0.25 96 1009.3
20260508232109 10 0 1.6 4.8 0.05 0.25 0.25 95 1009.0
20260508231607 11 356 1.6 4.8 0.05 0.25 0.25 95 1009.2
20260508231104 10 68 0.0 8.0 0.05 0.23 0.23 95 1009.2
20260508230600 10 311 0.0 3.2 0.18 0.23 0.23 95 1009.1
20260508230057 10 3 1.6 4.8 0.18 0.23 0.23 95 1009.1
20260508225555 10 276 0.0 3.2 0.13 0.20 0.20 95 1009.3
20260508225051 10 81 0.0 6.4 0.18 0.20 0.20 95 1009.4
20260508224549 11 139 0.0 6.4 0.13 0.18 0.18 94 1009.4
20260508224046 11 13 1.6 3.2 0.05 0.18 0.18 94 1009.6
20260508223544 11 54 0.0 3.2 0.18 0.18 0.18 94 1009.6
20260508223041 11 320 0.0 8.0 0.13 0.15 0.15 94 1009.8
20260508222538 11 57 1.6 8.0 0.18 0.15 0.15 93 1009.6
20260508222035 11 262 3.2 3.2 0.23 0.13 0.13 92 1009.4
20260508221531 11 70 3.2 4.8 0.13 0.10 0.10 92 1009.6
20260508221027 11 11 1.6 6.4 0.00 0.08 0.08 92 1009.4
20260508220524 11 46 4.8 8.0 0.13 0.08 0.08 91 1009.3
20260508220020 11 27 4.8 9.7 0.18 0.08 0.08 91 1009.3
20260508215517 11 35 0.0 6.4 0.13 0.05 0.05 90 1009.4
20260508215014 11 33 6.4 6.4 0.13 0.05 0.05 89 1009.5
20260508214511 11 31 4.8 8.0 0.18 0.05 0.05 88 1009.5
20260508214007 11 33 4.8 8.0 0.13 0.03 0.03 87 1009.6
20260508213505 11 11 3.2 9.7 0.05 0.00 0.00 86 1009.5
20260508213000 11 333 3.2 6.4 0.00 0.00 0.00 85 1009.4
20260508212457 11 32 4.8 6.4 0.00 0.00 0.00 85 1009.3
20260508211953 11 56 4.8 6.4 0.00 0.00 0.00 86 1009.2
20260508211449 11 39 3.2 6.4 0.00 0.00 0.00 85 1009.1
20260508210946 11 57 3.2 12.9 0.00 0.00 0.00 84 1009.1
20260508210443 11 20 6.4 9.7 0.00 0.00 0.00 83 1009.4
20260508205939 12 18 9.7 9.7 0.00 0.00 0.00 83 1009.4
20260508205436 12 355 3.2 11.3 0.00 0.00 0.00 83 1009.8
20260508204932 12 27 3.2 9.7 0.00 0.00 0.00 83 1009.5
20260508204430 11 4 3.2 6.4 0.00 0.00 0.00 83 1009.4
20260508203925 12 5 4.8 9.7 0.00 0.00 0.00 84 1009.8
20260508203422 12 8 4.8 16.1 0.00 0.00 0.00 84 1010.0
20260508202917 12 35 8.0 16.1 0.00 0.00 0.00 83 1009.8
20260508202415 12 301 6.4 16.1 0.00 0.00 0.00 84 1009.9
20260508201912 12 12 3.2 9.7 0.00 0.00 0.00 84 1010.0
20260508201409 12 27 9.7 9.7 0.00 0.00 0.00 84 1010.3
20260508200905 12 29 12.9 16.1 0.00 0.00 0.00 83 1010.1
20260508200402 12 15 4.8 14.5 0.00 0.00 0.00 82 1010.3
20260508195857 12 339 6.4 14.5 0.00 0.00 0.00 81 1010.5
20260508195354 12 24 12.9 20.9 0.00 0.00 0.00 78 1010.7
20260508194851 13 296 8.0 12.9 0.00 0.00 0.00 77 1010.3
20260508194348 13 26 11.3 16.1 0.00 0.00 0.00 76 1010.7
20260508193845 13 323 6.4 16.1 0.00 0.00 0.00 75 1010.4
20260508193342 14 27 8.0 14.5 0.00 0.00 0.00 75 1010.4
20260508192838 14 276 6.4 9.7 0.00 0.00 0.00 73 1010.3
20260508192335 14 357 8.0 14.5 0.00 0.00 0.00 72 1010.5
20260508191832 15 339 3.2 14.5 0.00 0.00 0.00 73 1010.7
20260508191329 15 285 6.4 9.7 0.00 0.00 0.00 70 1010.7
20260508190826 15 22 9.7 11.3 0.00 0.00 0.00 70 1010.5
20260508190323 15 12 8.0 12.9 0.00 0.00 0.00 70 1010.7
20260508185819 15 4 4.8 11.3 0.00 0.00 0.00 69 1010.3
20260508185317 15 20 0.0 6.4 0.00 0.00 0.00 69 1010.7
20260508184814 15 13 8.0 9.7 0.00 0.00 0.00 70 1010.8
20260508184311 16 5 11.3 16.1 0.00 0.00 0.00 68 1010.8
20260508183808 15 5 8.0 16.1 0.00 0.00 0.00 70 1010.9
20260508183305 15 5 4.8 11.3 0.00 0.00 0.00 68 1010.9
20260508182800 16 11 16.1 17.7 0.00 0.00 0.00 67 1010.9
20260508182257 16 37 6.4 19.3 0.00 0.00 0.00 70 1010.9
20260508181753 15 41 6.4 9.7 0.00 0.00 0.00 69 1011.0
20260508181250 15 32 9.7 16.1 0.00 0.00 0.00 70 1011.1
20260508180747 15 35 11.3 12.9 0.00 0.00 0.00 70 1011.2
20260508180244 14 24 11.3 11.3 0.00 0.00 0.00 71 1011.1
20260508175740 15 12 9.7 17.7 0.00 0.00 0.00 69 1011.4
20260508175237 15 9 12.9 14.5 0.00 0.00 0.00 72 1011.4
20260508174735 15 343 3.2 14.5 0.00 0.00 0.00 70 1011.3
20260508174232 15 17 6.4 16.1 0.00 0.00 0.00 72 1011.6
20260508173728 15 22 9.7 12.9 0.00 0.00 0.00 71 1011.8
20260508173224 15 359 9.7 16.1 0.00 0.00 0.00 71 1011.6
20260508172721 14 32 11.3 12.9 0.00 0.00 0.00 71 1011.8
20260508172218 15 0 8.0 16.1 0.00 0.00 0.00 74 1011.5
20260508171715 14 1 6.4 17.7 0.00 0.00 0.00 70 1011.7
20260508171211 14 320 4.8 9.7 0.00 0.00 0.00 70 1012.0
20260508170708 14 14 12.9 12.9 0.00 0.00 0.00 69 1011.7
20260508170206 14 294 1.6 8.0 0.00 0.00 0.00 70 1011.8
20260508165702 14 316 3.2 6.4 0.00 0.00 0.00 70 1012.0
20260508165200 14 317 3.2 4.8 0.00 0.00 0.00 69 1012.0
20260508164656 14 348 8.0 14.5 0.00 0.00 0.00 68 1012.1
20260508164152 14 292 6.4 16.1 0.00 0.00 0.00 68 1012.0
20260508163651 15 337 9.7 16.1 0.00 0.00 0.00 67 1012.1
20260508163148 15 334 6.4 14.5 0.00 0.00 0.00 68 1011.8
20260508162643 14 3 6.4 12.9 0.00 0.00 0.00 68 1012.1
20260508162140 15 356 4.8 12.9 0.00 0.00 0.00 66 1012.1
20260508161637 15 16 4.8 6.4 0.00 0.00 0.00 67 1012.2
20260508161135 15 8 4.8 4.8 0.00 0.00 0.00 66 1011.8
20260508160633 15 119 3.2 8.0 0.00 0.00 0.00 68 1012.2
20260508160130 15 340 8.0 8.0 0.00 0.00 0.00 68 1012.3
20260508155627 15 89 4.8 6.4 0.00 0.00 0.00 69 1012.1
20260508155124 14 299 3.2 9.7 0.00 0.00 0.00 69 1012.1
20260508154621 14 338 6.4 14.5 0.00 0.00 0.00 67 1012.4
20260508154118 15 353 4.8 11.3 0.00 0.00 0.00 68 1012.2
20260508153615 14 345 3.2 6.4 0.00 0.00 0.00 69 1012.2
20260508153111 13 319 3.2 4.8 0.00 0.00 0.00 70 1012.1
20260508152608 13 318 3.2 11.3 0.00 0.00 0.00 69 1012.2
20260508152103 13 24 3.2 11.3 0.00 0.00 0.00 71 1012.1
20260508151601 13 4 4.8 11.3 0.00 0.00 0.00 69 1012.0
20260508151058 15 325 4.8 8.0 0.00 0.00 0.00 67 1012.1
20260508150555 14 344 3.2 8.0 0.00 0.00 0.00 68 1012.0
20260508150050 14 21 3.2 8.0 0.00 0.00 0.00 67 1012.1
20260508145547 15 351 0.0 4.8 0.00 0.00 0.00 67 1012.4
20260508145044 15 319 3.2 6.4 0.00 0.00 0.00 68 1012.3
20260508144542 14 10 3.2 8.0 0.00 0.00 0.00 67 1012.2
20260508144039 13 356 3.2 9.7 0.00 0.00 0.00 68 1012.3
20260508143536 15 233 1.6 3.2 0.00 0.00 0.00 64 1012.2
20260508143032 15 12 3.2 4.8 0.00 0.00 0.00 65 1012.4
20260508142530 15 48 3.2 4.8 0.00 0.00 0.00 67 1012.2
20260508142026 15 318 3.2 4.8 0.00 0.00 0.00 66 1012.4
20260508141522 13 334 3.2 8.0 0.00 0.00 0.00 67 1012.3
20260508141020 13 350 3.2 9.7 0.00 0.00 0.00 67 1012.5
20260508140518 13 17 3.2 6.4 0.00 0.00 0.00 68 1012.4
20260508140014 13 34 0.0 8.0 0.00 0.00 0.00 68 1012.5
20260508135509 13 138 3.2 8.0 0.00 0.00 0.00 66 1012.5
20260508135006 13 43 3.2 9.7 0.00 0.00 0.00 66 1012.5
20260508134502 13 70 0.0 3.2 0.00 0.00 0.00 67 1012.2
20260508134000 13 112 6.4 6.4 0.00 0.00 0.00 66 1012.5
20260508133457 13 119 1.6 4.8 0.00 0.00 0.00 67 1012.7
20260508132953 13 330 0.0 4.8 0.00 0.00 0.00 70 1012.5
20260508132452 12 328 4.8 8.0 0.00 0.00 0.00 69 1012.5
20260508131948 12 67 3.2 6.4 0.00 0.00 0.00 71 1012.5
20260508131443 12 336 3.2 6.4 0.00 0.00 0.00 71 1012.6
20260508130940 11 340 3.2 6.4 0.00 0.00 0.00 71 1012.4
20260508130437 11 31 3.2 6.4 0.00 0.00 0.00 72 1012.6
20260508125933 12 20 8.0 9.7 0.00 0.00 0.00 70 1012.6
20260508125429 11 318 6.4 11.3 0.00 0.00 0.00 69 1012.4
20260508124927 11 344 0.0 4.8 0.00 0.00 0.00 71 1012.6
20260508124425 10 14 4.8 6.4 0.00 0.00 0.00 73 1012.4
20260508123922 10 3 3.2 6.4 0.00 0.00 0.00 73 1012.5
20260508123421 10 35 0.0 6.4 0.00 0.00 0.00 73 1012.5
20260508122917 10 317 6.4 6.4 0.00 0.00 0.00 73 1012.6
20260508122414 10 23 4.8 6.4 0.00 0.00 0.00 74 1012.6
20260508121911 10 13 4.8 9.7 0.00 0.00 0.00 75 1012.4
20260508121409 10 23 6.4 9.7 0.00 0.00 0.00 76 1012.3
20260508120906 10 345 1.6 6.4 0.00 0.00 0.00 77 1012.4
20260508120404 10 354 4.8 8.0 0.00 0.00 0.00 77 1012.5
20260508115901 9 23 4.8 8.0 0.00 0.00 0.00 79 1012.2
20260508115359 9 42 4.8 6.4 0.00 0.00 0.00 80 1012.2
20260508114855 9 50 6.4 8.0 0.00 0.00 0.00 81 1012.0
20260508114352 9 16 4.8 6.4 0.00 0.00 0.00 80 1012.1
20260508113849 9 7 3.2 6.4 0.00 0.00 0.00 80 1011.8
20260508113347 9 10 4.8 6.4 0.00 0.00 0.00 80 1012.0
20260508112844 8 60 3.2 6.4 0.00 0.00 0.00 80 1012.1
20260508112341 8 40 3.2 4.8 0.00 0.00 0.00 81 1011.8
20260508111837 8 23 3.2 4.8 0.00 0.00 0.00 80 1011.8
20260508111334 8 34 3.2 6.4 0.00 0.00 0.00 79 1011.6
20260508110831 9 22 4.8 6.4 0.00 0.00 0.00 79 1011.6
20260508110329 9 357 4.8 6.4 0.00 0.00 0.00 78 1011.8
20260508105829 9 8 6.4 8.0 0.00 0.00 0.00 77 1011.4
20260508105326 9 17 4.8 6.4 0.00 0.00 0.00 76 1011.7
20260508104822 9 10 3.2 6.4 0.00 0.00 0.00 76 1011.8
20260508104319 9 8 4.8 6.4 0.00 0.00 0.00 75 1011.5
20260508103817 9 359 6.4 8.0 0.00 0.00 0.00 75 1011.7
20260508103313 9 356 6.4 9.7 0.00 0.00 0.00 75 1011.4
20260508102811 8 108 4.8 9.7 0.00 0.00 0.00 76 1011.5
20260508102309 8 341 6.4 9.7 0.00 0.00 0.00 76 1011.5
20260508101806 8 14 6.4 9.7 0.00 0.00 0.00 76 1011.5
20260508101303 8 12 6.4 14.5 0.00 0.00 0.00 77 1011.4
20260508100801 8 357 8.0 9.7 0.00 0.00 0.00 80 1011.6
20260508100259 8 24 4.8 9.7 0.00 0.00 0.00 82 1011.6
20260508095754 8 9 4.8 8.0 0.00 0.00 0.00 83 1011.7
20260508095252 8 33 6.4 9.7 0.00 0.00 0.00 82 1011.7
20260508094749 7 12 4.8 8.0 0.00 0.00 0.00 83 1011.7
20260508094246 7 17 3.2 6.4 0.00 0.00 0.00 84 1011.5
20260508093743 7 45 4.8 6.4 0.00 0.00 0.00 85 1011.5
20260508093241 7 40 1.6 4.8 0.00 0.00 0.00 85 1011.6
20260508092737 7 34 3.2 3.2 0.00 0.00 0.00 85 1011.6
20260508092236 7 46 4.8 6.4 0.00 0.00 0.00 85 1011.8
20260508091733 7 350 3.2 6.4 0.00 0.00 0.00 84 1011.6
20260508091230 7 56 3.2 4.8 0.00 0.00 0.00 84 1011.8
20260508090728 7 18 3.2 8.0 0.00 0.00 0.00 84 1011.7
20260508090225 7 31 3.2 6.4 0.00 0.00 0.00 84 1011.8
20260508085721 7 23 3.2 8.0 0.00 0.00 0.00 84 1011.8
20260508085219 7 16 3.2 8.0 0.00 0.00 0.00 84 1011.8
20260508084714 7 27 4.8 8.0 0.00 0.00 0.00 84 1011.9
20260508084212 7 27 6.4 9.7 0.00 0.00 0.00 83 1011.9
20260508083709 7 70 4.8 9.7 0.00 0.00 0.00 83 1011.7
20260508083207 7 16 3.2 9.7 0.00 0.00 0.00 82 1011.9
20260508082701 7 40 4.8 11.3 0.00 0.00 0.00 82 1012.0
20260508082159 7 37 4.8 9.7 0.00 0.00 0.00 82 1012.0
20260508081657 7 30 4.8 8.0 0.00 0.00 0.00 83 1012.0
20260508081153 7 16 4.8 8.0 0.00 0.00 0.00 83 1012.1
20260508080650 7 27 6.4 6.4 0.00 0.00 0.00 83 1012.0
20260508080149 7 42 4.8 9.7 0.00 0.00 0.00 83 1012.0
20260508075644 7 40 4.8 6.4 0.00 0.00 0.00 83 1012.1
20260508075142 7 14 4.8 6.4 0.00 0.00 0.00 82 1011.9
20260508074639 7 21 4.8 9.7 0.00 0.00 0.00 82 1012.1
20260508074136 7 16 3.2 8.0 0.00 0.00 0.00 82 1011.9
20260508073633 7 17 4.8 9.7 0.00 0.00 0.00 81 1012.2
20260508073131 7 20 9.7 9.7 0.00 0.00 0.00 81 1012.1
20260508072627 7 37 4.8 12.9 0.00 0.00 0.00 81 1012.2
20260508072124 7 23 6.4 9.7 0.00 0.00 0.00 80 1012.3
20260508071621 8 332 3.2 8.0 0.00 0.00 0.00 79 1012.2
20260508071120 8 348 4.8 9.7 0.00 0.00 0.00 78 1012.1
20260508070617 8 341 3.2 11.3 0.00 0.00 0.00 76 1012.2
20260508070115 8 339 6.4 14.5 0.00 0.00 0.00 76 1012.4
20260508065612 8 34 6.4 11.3 0.00 0.00 0.00 75 1012.4
20260508065110 8 7 9.7 14.5 0.00 0.00 0.00 74 1012.2
20260508064607 9 304 6.4 16.1 0.00 0.00 0.00 73 1012.2
20260508064105 8 332 6.4 16.1 0.00 0.00 0.00 73 1012.1
20260508063603 8 358 4.8 11.3 0.00 0.00 0.00 72 1012.3
20260508063101 8 318 3.2 11.3 0.00 0.00 0.00 72 1012.3
20260508062558 8 359 6.4 9.7 0.00 0.00 0.00 73 1012.3
20260508062054 8 12 0.0 8.0 0.00 0.00 0.00 72 1012.2
20260508061552 8 41 8.0 11.3 0.00 0.00 0.00 72 1012.2
20260508061048 8 31 3.2 12.9 0.00 0.00 0.00 72 1012.3
20260508060545 8 50 6.4 6.4 0.00 0.00 0.00 73 1012.2
20260508060043 8 23 8.0 8.0 0.00 0.00 0.00 73 1012.3
20260508055538 8 47 3.2 6.4 0.00 0.00 0.00 73 1012.4
20260508055035 8 33 8.0 9.7 0.00 0.00 0.00 73 1012.4
20260508054532 8 50 3.2 8.0 0.00 0.00 0.00 72 1012.3
20260508054029 8 345 4.8 4.8 0.00 0.00 0.00 73 1012.6
20260508053526 8 61 6.4 6.4 0.00 0.00 0.00 72 1012.6
20260508053025 8 48 3.2 4.8 0.00 0.00 0.00 72 1012.6
20260508052521 8 308 3.2 6.4 0.00 0.00 0.00 72 1012.6
20260508052018 8 68 0.0 3.2 0.00 0.00 0.00 72 1012.8
20260508051514 8 329 0.0 3.2 0.00 0.00 0.00 72 1012.7
20260508051009 8 9 3.2 4.8 0.00 0.00 0.00 73 1012.9
20260508050506 8 57 1.6 4.8 0.00 0.00 0.00 73 1012.9
20260508050003 8 21 3.2 4.8 0.00 0.00 0.00 72 1012.9
20260508045500 8 38 1.6 4.8 0.00 0.00 0.00 71 1012.8
20260508044957 8 12 1.6 4.8 0.00 0.00 0.00 71 1012.8
20260508044454 8 343 3.2 6.4 0.00 0.00 0.00 71 1012.8
20260508043949 8 29 4.8 8.0 0.00 0.00 0.00 70 1012.7
20260508043447 8 54 4.8 6.4 0.00 0.00 0.00 70 1012.7
20260508042943 8 30 3.2 6.4 0.00 0.00 0.00 70 1012.8
20260508042441 8 13 4.8 8.0 0.00 0.00 0.00 70 1012.8
20260508041938 8 49 3.2 6.4 0.00 0.00 0.00 70 1012.9
20260508041434 8 22 3.2 6.4 0.00 0.00 0.00 69 1012.9
20260508040931 9 34 6.4 6.4 0.00 0.00 0.00 68 1012.8
20260508040429 9 23 4.8 9.7 0.00 0.00 0.00 68 1012.8
20260508035926 9 344 3.2 8.0 0.00 0.00 0.00 68 1012.8
20260508035423 9 353 6.4 9.7 0.00 0.00 0.00 68 1012.8